Nebraska City, NE

6:12 PM CDT on July 28, 2016 (GMT -0500)
Nebraska City Municipal

Weather History for KAFK - November, 2013

Change the Weather History Date:

Thursday, November 14, 2013

  Actual Average (KSDA) Record (KSDA)
Temperature  
Mean Temperature 44 °F -  
Max Temperature 54 °F 49 °F 75 °F (1964)
Min Temperature 33 °F 28 °F -2 °F (1959)
Degree Days  
Heating Degree Days 22    
Moisture  
Dew Point 25 °F    
Average Humidity 52    
Maximum Humidity 73    
Minimum Humidity 33    
Precipitation  
Precipitation 0.00 in - - ()
Sea Level Pressure  
Sea Level Pressure 29.94 in    
Wind  
Wind Speed 10 mph (SW)    
Max Wind Speed 15 mph    
Max Gust Speed 20 mph    
Visibility 10 miles    
Events      
Averages and records for this station are not official NWS values.
T = Trace of Precipitation, MM = Missing Value Source: NWS Daily Summary

Daily Weather History Graph

Daily Weather History Graph

Search for Another Location

Airport or City:

Trip Planner

Search our weather history database for the weather conditions in past years. The results will help you decide how hot, cold, wet, or windy it might be!

Date:

Astronomy

Nov. 14, 2013 Rise Set
Actual Time 7:09 AM CST 5:06 PM CST
Civil Twilight 6:39 AM CST 5:35 PM CST
Nautical Twilight 6:06 AM CST 6:08 PM CST
Astronomical Twilight 5:34 AM CST 6:40 PM CST
Moon 3:28 PM CST (11/14) 4:04 AM CST (11/14)
Length of Visible Light 10h 55m
Length of Day
9h 57m
Waxing Gibbous, 92% of the Moon is Illuminated
Nov 14
Waxing Gibbous
Nov 17
Full
Nov 25
Last Quarter
Dec 2
New
Dec 9
First Quarter

Hourly Weather History & Observations

Time (CST) Temp. Windchill Dew Point Humidity Pressure Visibility Wind Dir Wind Speed Gust Speed Precip Events Conditions
12:15 AM 35.1 °F 26.4 °F 22.6 °F 61% 30.02 in 10.0 mi SSW 12.7 mph - N/A   Clear
12:35 AM 35.1 °F 26.9 °F 22.6 °F 61% 30.01 in 10.0 mi SSW 11.5 mph - N/A   Clear
12:55 AM 34.9 °F 26.6 °F 22.6 °F 61% 30.01 in 10.0 mi SSW 11.5 mph - N/A   Clear
1:15 AM 34.7 °F 25.9 °F 22.8 °F 62% 30.00 in 10.0 mi South 12.7 mph - N/A   Clear
1:35 AM 35.2 °F 27.1 °F 22.6 °F 60% 29.99 in 10.0 mi SSW 11.5 mph - N/A   Clear
1:55 AM 36.7 °F 29.4 °F 22.1 °F 56% 29.99 in 10.0 mi SSW 10.4 mph - N/A   Clear
2:15 AM 37.4 °F 29.3 °F 22.1 °F 54% 29.99 in 10.0 mi South 12.7 mph - N/A   Clear
2:35 AM 36.1 °F 28.7 °F 21.9 °F 56% 29.99 in 10.0 mi SSW 10.4 mph - N/A   Clear
2:55 AM 36.3 °F 28.4 °F 21.9 °F 56% 29.98 in 10.0 mi SSW 11.5 mph - N/A   Clear
3:15 AM 36.9 °F 29.6 °F 21.7 °F 54% 29.98 in 10.0 mi SSW 10.4 mph - N/A   Clear
3:35 AM 35.6 °F 27.5 °F 21.7 °F 57% 29.97 in 10.0 mi SSW 11.5 mph - N/A   Clear
3:55 AM 35.2 °F 26.2 °F 21.9 °F 58% 29.97 in 10.0 mi SSW 13.8 mph - N/A   Clear
4:15 AM 35.1 °F 26.4 °F 21.9 °F 59% 29.96 in 10.0 mi SSW 12.7 mph - N/A   Clear
4:35 AM 35.8 °F 28.8 °F 21.9 °F 57% 29.96 in 10.0 mi SSW 9.2 mph - N/A   Clear
4:55 AM 35.6 °F 29.9 °F 21.9 °F 58% 29.97 in 10.0 mi SSW 6.9 mph - N/A   Clear
5:15 AM 34.7 °F 28.8 °F 21.7 °F 59% 29.97 in 10.0 mi South 6.9 mph - N/A   Clear
5:35 AM 34.7 °F 27.5 °F 22.1 °F 60% 29.96 in 10.0 mi South 9.2 mph - N/A   Clear
5:55 AM 34.7 °F 27.5 °F 22.1 °F 60% 29.95 in 10.0 mi SSW 9.2 mph - N/A   Clear
6:15 AM 34.7 °F 26.9 °F 21.9 °F 60% 29.95 in 10.0 mi SSW 10.4 mph - N/A   Clear
6:35 AM 34.5 °F 27.9 °F 21.9 °F 60% 29.96 in 10.0 mi SSW 8.1 mph - N/A   Clear
6:55 AM 34.0 °F 28.8 °F 21.7 °F 61% 29.96 in 10.0 mi South 5.8 mph - N/A   Clear
7:15 AM 33.3 °F 25.7 °F 21.9 °F 63% 29.97 in 10.0 mi South 9.2 mph - N/A   Clear
7:35 AM 33.8 °F 27.7 °F 22.1 °F 62% 29.97 in 10.0 mi South 6.9 mph - N/A   Clear
7:55 AM 35.6 °F 28.6 °F 22.3 °F 58% 29.96 in 10.0 mi South 9.2 mph - N/A   Clear
8:15 AM 37.0 °F 29.8 °F 22.1 °F 55% 29.97 in 10.0 mi South 10.4 mph - N/A   Clear
8:35 AM 38.3 °F 30.9 °F 22.1 °F 52% 29.97 in 10.0 mi SSW 11.5 mph - N/A   Clear
8:55 AM 39.0 °F 31.8 °F 22.1 °F 51% 29.98 in 10.0 mi SSW 11.5 mph - N/A   Clear
9:15 AM 39.7 °F 33.7 °F 22.6 °F 50% 29.99 in 10.0 mi SW 9.2 mph - N/A   Clear
9:35 AM 41.4 °F 35.7 °F 22.6 °F 47% 29.98 in 10.0 mi SW 9.2 mph - N/A   Clear
9:55 AM 42.8 °F 37.0 °F 21.7 °F 43% 29.98 in 10.0 mi SW 10.4 mph - N/A   Clear
10:15 AM 45.0 °F 38.2 °F 21.6 °F 40% 29.98 in 10.0 mi SW 15.0 mph - N/A   Clear
10:35 AM 47.1 °F - 21.9 °F 37% 29.98 in 10.0 mi SW 15.0 mph 19.6 mph N/A   Clear
10:55 AM 47.8 °F - 21.6 °F 35% 29.97 in 10.0 mi SW 15.0 mph - N/A   Clear
11:15 AM 49.1 °F - 22.1 °F 35% 29.97 in 10.0 mi SW 13.8 mph - N/A   Clear
11:35 AM 50.2 °F - 22.6 °F 34% 29.96 in 10.0 mi SW 12.7 mph 16.1 mph N/A   Clear
11:55 AM 51.4 °F - 23.2 °F 33% 29.95 in 10.0 mi SW 9.2 mph 17.3 mph N/A   Clear
12:15 PM 53.2 °F - 24.4 °F 33% 29.94 in 10.0 mi SW 12.7 mph - N/A   Clear
12:35 PM 53.1 °F - 25.2 °F 34% 29.93 in 10.0 mi SSW 12.7 mph - N/A   Clear
12:55 PM 53.1 °F - 25.7 °F 35% 29.93 in 10.0 mi WSW 10.4 mph - N/A   Clear
1:15 PM 52.5 °F - 25.9 °F 36% 29.92 in 10.0 mi West 9.2 mph - N/A   Clear
1:35 PM 52.3 °F - 25.9 °F 36% 29.92 in 10.0 mi West 9.2 mph - N/A   Clear
1:55 PM 54.7 °F - 26.8 °F 34% 29.92 in 10.0 mi West 10.4 mph 16.1 mph N/A   Clear
2:15 PM 52.3 °F - 26.6 °F 37% 29.91 in 10.0 mi West 9.2 mph - N/A   Clear
2:35 PM 53.8 °F - 27.0 °F 36% 29.91 in 10.0 mi West 11.5 mph - N/A   Clear
2:55 PM 53.4 °F - 27.3 °F 37% 29.91 in 10.0 mi WSW 6.9 mph - N/A   Clear
3:15 PM 53.1 °F - 27.7 °F 38% 29.91 in 10.0 mi West 5.8 mph - N/A   Clear
3:35 PM 53.1 °F - 28.0 °F 38% 29.92 in 10.0 mi WSW 5.8 mph - N/A   Clear
3:55 PM 52.9 °F - 28.4 °F 39% 29.91 in 7.0 mi SW 4.6 mph - N/A   Clear
4:15 PM 52.9 °F - 29.3 °F 40% 29.90 in 10.0 mi SW 6.9 mph - N/A   Mostly Cloudy
4:35 PM 52.0 °F - 29.1 °F 41% 29.90 in 10.0 mi SSW 6.9 mph - N/A   Mostly Cloudy
4:55 PM 50.9 °F - 29.3 °F 43% 29.90 in 10.0 mi South 8.1 mph - N/A   Scattered Clouds
5:15 PM 50.0 °F - 29.1 °F 45% 29.90 in 10.0 mi South 9.2 mph - N/A   Scattered Clouds
5:35 PM 47.7 °F - 29.5 °F 49% 29.92 in 10.0 mi WSW 4.6 mph - N/A   Clear
5:55 PM 46.6 °F - 28.9 °F 50% 29.92 in 10.0 mi WSW 5.8 mph - N/A   Clear
6:15 PM 43.9 °F 41.3 °F 28.9 °F 56% 29.91 in 10.0 mi SW 4.6 mph - N/A   Scattered Clouds
6:35 PM 43.9 °F 39.9 °F 28.6 °F 55% 29.91 in 10.0 mi SW 6.9 mph - N/A   Clear
6:55 PM 42.8 °F 40.1 °F 29.1 °F 58% 29.92 in 10.0 mi WSW 4.6 mph - N/A   Clear
7:15 PM 43.0 °F 40.3 °F 28.8 °F 57% 29.91 in 10.0 mi WSW 4.6 mph - N/A   Clear
7:35 PM 42.6 °F 39.0 °F 28.8 °F 58% 29.91 in 10.0 mi WSW 5.8 mph - N/A   Clear
7:55 PM 42.3 °F 38.6 °F 29.3 °F 60% 29.92 in 10.0 mi West 5.8 mph - N/A   Clear
8:15 PM 42.3 °F 37.9 °F 29.1 °F 60% 29.91 in 10.0 mi WSW 6.9 mph - N/A   Clear
8:35 PM 40.3 °F 36.3 °F 28.4 °F 63% 29.90 in 10.0 mi SW 5.8 mph - N/A   Clear
8:55 PM 41.0 °F 37.1 °F 28.4 °F 61% 29.90 in 10.0 mi SW 5.8 mph - N/A   Clear
9:15 PM 38.3 °F 33.9 °F 28.2 °F 67% 29.91 in 10.0 mi SSW 5.8 mph - N/A   Clear
9:35 PM 37.6 °F 32.3 °F 28.4 °F 69% 29.91 in 10.0 mi SSW 6.9 mph - N/A   Clear
9:55 PM 37.4 °F 32.1 °F 28.8 °F 71% 29.91 in 10.0 mi SSW 6.9 mph - N/A   Clear
10:15 PM 39.6 °F 35.4 °F 28.8 °F 65% 29.92 in 10.0 mi SW 5.8 mph - N/A   Clear
10:35 PM 37.6 °F 33.1 °F 28.6 °F 70% 29.92 in 10.0 mi SW 5.8 mph - N/A   Clear
10:55 PM 37.4 °F 32.1 °F 28.0 °F 69% 29.92 in 10.0 mi SSW 6.9 mph - N/A   Clear
11:15 PM 37.8 °F 32.5 °F 28.0 °F 68% 29.91 in 10.0 mi SSW 6.9 mph - N/A   Clear
11:35 PM 35.8 °F 30.9 °F 27.9 °F 73% 29.91 in 10.0 mi SSW 5.8 mph - N/A   Clear
11:55 PM 36.5 °F 32.7 °F 28.0 °F 71% 29.91 in 10.0 mi South 4.6 mph - N/A   Clear